Back to catalog

STARLINK-33978

AliveCommunicationsVLEO
NORAD 63832·PAYLOAD·🇺🇸 United States

Launched May 4, 2025 from Cape Canaveral Space Force Station

Loading…

Next Passes (next 24 hours)

TLE

FreshSource: CelesTrak SupGP

Epoch: Sep 14, 2026, 22:41 UTC

1 63832C 25092AE  26257.94562500 -.00036662  00000+0 -13277-2 0  2576
2 63832  43.0009 183.5747 0001169 264.4325 348.1580 15.27601079    16

Track STARLINK-33978 in real time with AllMySat

Download on the App Store